Terminal Aerodrome Forecast
Issued by NWS Blacksburg, VA

Current Version | Previous Version | Text Only | Print | Product List | Glossary Off
Versions: 1 2 3 4 5 6 7 8 9 10 11 12 13 14 15 16 17 18 19 20 21 22 23 24 25 26 27 28 29 30 31 32 33

000
FTUS41 KRNK 300357 AAA
TAFBLF
TAF AMD
KBLF 300357Z 3004/3024 29014G24KT 5SM -SHRA SCT008 OVC015
      TEMPO 3004/3005 2SM -SHRASN BR BKN008
     FM300500 29017G27KT 4SM -SHSN BR SCT007 OVC015
      TEMPO 3005/3009 1SM -SHRASN BR OVC007
     FM301400 29020G30KT P6SM -SHSN OVC010
     FM301800 30018G32KT P6SM OVC015
     FM302200 30015G25KT P6SM BKN020=

USA.gov is the U.S. government's official web portal to all federal, state and local government web resources and services.